Roanoke, VA

2:01 AM EDT on October 23, 2019 (GMT -0400)
Roanoke Regional-Woodrum

Weather History for KROA - August, 2019

Change the Weather History Date:

Sunday, August 4, 2019

  Actual Average Record
Temperature  
Mean Temperature 80 °F 76 °F  
Max Temperature 90 °F 87 °F 103 °F (1930)
Min Temperature 69 °F 66 °F 51 °F (1976)
Degree Days  
Heating Degree Days 0 0  
Month to date heating degree days 0 0  
Since 1 June heating degree days 0 11  
Since 1 July heating degree days 0 0  
Cooling Degree Days 15 11  
Month to date cooling degree days 49 46  
Year to date cooling degree days 1032 769  
Since 1 June cooling degree days 753 653  
Growing Degree Days 30 (Base 50)    
Moisture  
Dew Point 65 °F    
Average Humidity 62    
Maximum Humidity 90    
Minimum Humidity 34    
Precipitation  
Precipitation T in 0.12 in 3.29 in (1948)
Month to date precipitation 0.26 0.47  
Year to date precipitation 27.83 25.04  
Snow  
Snow 0.00 in - - ()
Month to date snowfall 0.0  
Since 1 June snowfall T  
Since 1 July snowfall T  
Snow Depth 0.00 in    
Sea Level Pressure  
Sea Level Pressure 29.97 in    
Wind  
Wind Speed 4 mph (NNE)    
Max Wind Speed 12 mph    
Max Gust Speed 15 mph    
Visibility 10 miles    
Events Rain    
T = Trace of Precipitation, MM = Missing Value Source: NWS Daily Summary

Daily Weather History Graph

Daily Weather History Graph

Search for Another Location

Airport or City:

Astronomy

Aug. 04, 2019 Rise Set
Actual Time 6:26 AM EDT 8:24 PM EDT
Civil Twilight 5:58 AM EDT 8:53 PM EDT
Nautical Twilight 5:23 AM EDT 9:28 PM EDT
Astronomical Twilight 4:45 AM EDT 10:05 PM EDT
Moon 10:25 AM EDT (8/4) 11:08 PM EDT (8/4)
Length of Visible Light 14h 55m
Length of Day
13h 58m
Waxing Crescent, 18% of the Moon is Illuminated
Aug 4
Waxing Crescent
Aug 7
First Quarter
Aug 15
Full
Aug 23
Last Quarter
Aug 30
New

Hourly Weather History & Observations

Time (EDT) Temp. Heat Index Dew Point Humidity Pressure Visibility Wind Dir Wind Speed Gust Speed Precip Events Conditions
12:54 AM 73.0 °F - 70.0 °F 90% 30.00 in 10.0 mi Calm Calm - N/A   Clear
1:54 AM 73.0 °F - 69.1 °F 87% 29.99 in 10.0 mi East 4.6 mph - N/A   Clear
2:54 AM 72.0 °F - 68.0 °F 87% 29.98 in 10.0 mi NE 3.5 mph - N/A   Mostly Cloudy
3:54 AM 71.1 °F - 68.0 °F 90% 29.98 in 10.0 mi North 4.6 mph - N/A   Partly Cloudy
4:54 AM 71.1 °F - 68.0 °F 90% 29.97 in 10.0 mi Calm Calm - N/A   Mostly Cloudy
5:54 AM 71.1 °F - 66.9 °F 87% 29.99 in 10.0 mi NNW 3.5 mph - N/A   Clear
6:54 AM 70.0 °F - 66.9 °F 90% 30.01 in 10.0 mi NNE 8.1 mph - N/A   Partly Cloudy
7:54 AM 72.0 °F - 66.9 °F 84% 30.01 in 10.0 mi Calm Calm - N/A   Partly Cloudy
8:54 AM 75.9 °F - 66.9 °F 74% 30.01 in 10.0 mi Calm Calm - N/A   Partly Cloudy
9:54 AM 79.0 °F - 68.0 °F 69% 30.01 in 10.0 mi North 4.6 mph - N/A   Partly Cloudy
10:54 AM 81.0 °F 83.8 °F 68.0 °F 65% 30.01 in 10.0 mi East 4.6 mph - N/A   Partly Cloudy
11:54 AM 84.9 °F 85.4 °F 62.1 °F 46% 30.00 in 10.0 mi NE 4.6 mph - N/A   Scattered Clouds
12:54 PM 86.0 °F 86.3 °F 62.1 °F 44% 29.99 in 10.0 mi Calm Calm - N/A   Mostly Cloudy
1:54 PM 88.0 °F 88.4 °F 62.1 °F 42% 29.97 in 10.0 mi Variable 4.6 mph - N/A   Scattered Clouds
2:54 PM 88.0 °F 87.9 °F 61.0 °F 40% 29.95 in 10.0 mi West 9.2 mph - N/A   Mostly Cloudy
3:54 PM 89.1 °F 88.0 °F 57.9 °F 35% 29.93 in 10.0 mi NNW 6.9 mph - N/A   Scattered Clouds
4:54 PM 88.0 °F 86.5 °F 55.9 °F 34% 29.92 in 10.0 mi Calm Calm - N/A   Scattered Clouds
5:54 PM 89.1 °F 88.0 °F 57.9 °F 35% 29.92 in 10.0 mi Calm Calm - N/A   Mostly Cloudy
6:54 PM 87.1 °F 86.5 °F 59.0 °F 39% 29.93 in 10.0 mi Calm Calm - N/A   Scattered Clouds
7:54 PM 84.0 °F 84.5 °F 62.1 °F 47% 29.94 in 10.0 mi SE 6.9 mph - N/A   Scattered Clouds
8:54 PM 82.9 °F 84.0 °F 63.0 °F 51% 29.94 in 10.0 mi Calm Calm - N/A   Mostly Cloudy
9:54 PM 81.0 °F 83.0 °F 66.0 °F 60% 29.96 in 10.0 mi NNE 3.5 mph - N/A   Overcast
10:54 PM 79.0 °F - 68.0 °F 69% 29.97 in 10.0 mi NNW 4.6 mph - 0.00 in Rain Light Rain
11:54 PM 73.9 °F - 68.0 °F 82% 29.97 in 10.0 mi North 3.5 mph - 0.00 in   Overcast